sat.trackr.live / text

‹ back to catalog

STARLINK-36376

NORAD 67590 · 2026-018B

PAYLOAD ACTIVE UNKNOWN

§ Identity

Operator
Country
US
Launch date
2026-01-29
Launch site
AFWTR
Launch vehicle
Mass (kg)
RCS (m²)

Purposes: comms

External: N2YO · Heavens-Above · Gunter

§ Orbital elements

Epoch: 2026-09-19T11:36:07.554528Z

Period
93.91 min
Inclination
97.2853°
Eccentricity
0.0000703
Mean motion
15.33433626 rev/d
Perigee alt
465.1 km
Apogee alt
466.1 km
Semi-major
6,843.7 km
B*
6.2932e-4
RAAN
325.9405°
Arg perigee
105.8994°
Mean anomaly
254.2326°
Rev number
3,703

§ Raw data

STARLINK-363761 67590U 26018B   26262.48342077  .00020289  00000+0  62932-3 0  99922 67590  97.2853 325.9405 0000703 105.8994 254.2326 15.33433626 37030

JSON: /api/v1/satellites/67590 · /tle

For live sub-satellite position, see the globe view (requires WebGL).

§ Visibility from observer

Set your observer location to see the next 7 days of passes ≥ 10°. The values pass through the URL so the page stays shareable.

No JS? Fill the form by hand. The geolocation button needs JavaScript.